Tracking 29892 objects as of 21-Nov-2024
HD Live streaming from Space Station
objects crossing your sky now

BSAT-2C

Track BSAT-2C now!
BSAT-2C is classified as:


NORAD ID: 27830
Int'l Code: 2003-028A
Perigee: 36,067.2 km
Apogee: 36,124.4 km
Inclination: 8.9 °
Period: 1,451.6 minutes
Semi major axis: 42466 km
RCS: 12.6191 m2 (large)
Launch date: June 11, 2003
Source: Japan (JPN)
Launch site: FRENCH GUIANA (FRGUI)

Backup to BSAT-2A; direct digital broadcasts to homes in Japan and neighboring countries through its Ku-band transponders.
Your satellite tracking list
Your tracking list is empty




NASA's NSSDC Master Catalog

Two Line Element Set (TLE):
1 27830U 03028A   24326.00999175 -.00000164  00000-0  00000+0 0  9991
2 27830   8.8898  57.3442 0006744 231.5794 135.3322  0.99203868 78144
Source of the keplerian elements: AFSPC